QPF
0.00 0.00 0.00 0.00 0.00 0.00 0.01 0.01 0.00 0.01 0.05 0.07 0.07 0.05 0.04 0.04 0.03 0.04 0.06 0.06 0.06 0.07
0.00 0.00 0.00 0.00 0.00 0.00 0.00 0.00 0.00 0.05 0.07 0.06 0.02 0.01 0.03 0.06 0.04 0.03 0.02 0.04 0.06 0.06
0.00 0.00 0.00 0.00 0.00 0.00 0.00 0.00 0.00 0.00 0.01 0.02 0.01 0.02 0.05 0.05 0.06 0.05 0.02 0.02 0.01 0.04
0.00 0.00 0.01 0.03 0.00 0.00 0.00 0.00 0.00 0.00 0.00 0.00 0.01 0.04 0.07 0.08 0.03 0.06 0.06 0.01 0.00 0.00
0.00 0.02 0.04 0.06 0.01 0.00 0.00 0.00 0.00 0.00 0.00 0.00 0.01 0.07 0.17 0.06 0.00 0.01 0.03 0.01 0.00 0.07
0.00 0.01 0.05 0.05 0.01 0.00 0.00 0.00 0.00 0.00 0.00 0.00 0.02 0.13 0.24 0.07 0.01 0.01 0.03 0.11 0.18 0.12
0.00 0.00 0.04 0.01 0.00 0.00 0.00 0.00 0.00 0.00 0.00 0.00 0.01 0.06 0.03 0.00 0.04 0.07 0.07 0.15 0.15 0.08
0.00 0.00 0.00 0.00 0.00 0.00 0.00 0.01 0.00 0.00 0.00 0.00 0.00 0.00 0.01 0.13 0.16 0.07 0.04 0.10 0.06 0.05
0.00 0.00 0.00 0.00 0.00 0.00 0.02 0.00 0.00 0.00 0.01 0.01 0.00 0.00 0.00 0.04 0.18 0.20 0.13 0.02 0.01 0.01
0.00 0.00 0.00 0.00 0.00 0.00 0.00 0.01 0.00 0.00 0.01 0.01 0.00 0.00 0.00 0.01 0.07 0.14 0.14 0.09 0.04 0.00
0.00 0.00 0.00 0.00 0.00 0.03 0.07 0.08 0.04 0.07 0.03 0.00 0.00 0.00 0.00 0.00 0.02 0.09 0.12 0.10 0.05 0.02
0.00 0.00 0.00 0.00 0.00 0.03 0.06 0.08 0.10 0.13 0.09 0.00 0.00 0.00 0.00 0.00 0.02 0.06 0.08 0.09 0.07 0.04
0.00 0.00 0.00 0.00 0.00 0.00 0.02 0.02 0.08 0.13 0.15 0.01 0.00 0.00 0.00 0.00 0.04 0.07 0.07 0.06 0.02 0.03
0.00 0.00 0.00 0.00 0.00 0.00 0.00 0.01 0.08 0.09 0.06 0.06 0.00 0.00 0.00 0.01 0.09 0.07 0.07 0.02 0.01 0.00
MSLP
1004.08 1004.12 1004.30 1004.97 1004.74 1005.20 1005.72 1006.33 1006.51 1006.74 1006.99 1007.10 1007.13 1007.06 1007.07 1007.11 1007.11 1007.20 1007.29 1007.33 1007.20 1007.01
1004.21 1004.18 1004.74 1005.21 1005.46 1005.52 1005.89 1006.16 1006.42 1006.57 1006.86 1006.91 1006.59 1006.68 1006.76 1007.03 1006.96 1007.05 1007.11 1007.09 1007.18 1007.06
1004.12 1004.61 1005.11 1005.42 1005.32 1005.56 1005.94 1006.05 1006.37 1006.43 1006.47 1006.55 1006.34 1006.41 1006.83 1007.05 1007.05 1007.06 1007.11 1007.00 1007.04 1007.04
1004.17 1004.44 1004.95 1005.40 1005.60 1005.75 1006.25 1006.32 1006.28 1006.32 1006.27 1006.11 1006.15 1006.55 1006.76 1007.10 1007.04 1006.98 1006.95 1007.37 1007.24 1006.95
1004.23 1004.36 1005.08 1005.50 1005.54 1005.85 1006.16 1006.28 1006.11 1006.15 1006.05 1006.01 1006.42 1006.83 1006.99 1007.16 1007.14 1007.07 1007.05 1006.84 1006.78 1006.86
1003.88 1004.44 1005.05 1005.34 1005.68 1005.87 1005.99 1006.13 1005.94 1005.87 1005.98 1006.08 1006.71 1007.04 1007.38 1007.50 1007.52 1007.32 1007.18 1006.90 1007.01 1007.02
1003.86 1004.22 1005.05 1005.11 1005.47 1005.69 1005.89 1005.98 1006.10 1005.86 1006.35 1006.54 1006.93 1007.18 1007.33 1007.97 1007.80 1007.84 1007.66 1007.39 1007.26 1007.25
1003.85 1004.15 1004.60 1005.05 1005.31 1005.49 1005.73 1005.93 1006.16 1006.31 1006.31 1006.72 1007.05 1007.56 1007.57 1007.83 1007.94 1008.21 1008.21 1008.10 1008.21 1008.47
1003.82 1004.23 1004.67 1005.14 1005.67 1005.92 1006.07 1006.20 1006.37 1006.44 1006.78 1007.17 1007.36 1008.38 1008.43 1008.51 1008.27 1008.42 1008.60 1008.80 1008.98 1009.22
1003.81 1004.31 1004.78 1005.06 1005.40 1005.74 1006.08 1006.19 1006.28 1006.35 1006.92 1007.25 1008.40 1008.96 1008.99 1008.71 1008.43 1008.64 1008.65 1008.94 1009.23 1009.64
1003.47 1004.14 1004.68 1005.17 1005.56 1006.04 1006.51 1006.70 1006.89 1006.85 1007.43 1007.86 1008.95 1009.38 1009.37 1009.11 1008.88 1008.96 1009.07 1009.13 1009.34 1010.03
1003.20 1003.90 1004.52 1005.05 1005.66 1006.30 1006.78 1007.11 1007.29 1007.39 1007.61 1007.93 1009.10 1009.71 1009.74 1009.43 1009.25 1009.41 1009.41 1009.53 1009.99 1010.28
1003.04 1003.83 1004.40 1005.15 1005.66 1006.08 1006.59 1006.73 1007.24 1007.49 1007.77 1008.26 1009.16 1009.91 1010.03 1010.01 1009.74 1009.75 1009.93 1010.13 1010.76 1010.98
1003.13 1003.89 1004.54 1005.31 1005.79 1006.06 1006.27 1006.51 1007.26 1007.63 1007.87 1008.40 1009.07 1010.09 1010.35 1010.28 1009.93 1009.88 1009.99 1010.37 1011.09 1012.16
Thickness
5688 5685 5679 5668 5667 5659 5652 5645 5642 5639 5635 5632 5630 5628 5625 5623 5622 5621 5621 5622 5624 5628
5684 5681 5670 5664 5658 5655 5650 5647 5643 5641 5636 5635 5636 5634 5631 5627 5627 5626 5625 5626 5627 5631
5681 5674 5667 5660 5656 5653 5649 5648 5643 5642 5641 5639 5641 5639 5634 5630 5629 5627 5627 5629 5630 5633
5677 5672 5666 5658 5654 5651 5647 5645 5644 5644 5644 5645 5644 5641 5637 5633 5632 5630 5631 5628 5631 5635
5674 5671 5662 5656 5655 5651 5647 5646 5647 5647 5648 5647 5644 5640 5637 5634 5633 5632 5632 5635 5637 5639
5675 5668 5661 5657 5654 5651 5649 5648 5650 5651 5649 5648 5644 5640 5636 5632 5633 5634 5635 5638 5638 5640
5674 5670 5661 5660 5656 5653 5651 5649 5649 5652 5648 5647 5645 5643 5641 5633 5633 5632 5634 5638 5640 5643
5674 5670 5666 5661 5658 5656 5653 5652 5650 5649 5650 5649 5646 5643 5642 5638 5636 5632 5634 5636 5637 5638
5674 5669 5664 5659 5654 5651 5651 5651 5649 5649 5647 5646 5647 5635 5637 5636 5637 5636 5635 5634 5635 5636
5673 5668 5663 5661 5657 5653 5650 5651 5650 5650 5647 5647 5641 5634 5635 5638 5641 5638 5639 5636 5636 5636
5678 5671 5666 5660 5656 5651 5647 5645 5645 5647 5643 5644 5638 5634 5636 5639 5644 5641 5639 5640 5641 5637
5684 5676 5670 5663 5657 5650 5645 5642 5641 5643 5643 5644 5638 5634 5636 5642 5645 5642 5641 5643 5640 5641
5689 5681 5674 5666 5661 5656 5650 5648 5644 5643 5644 5642 5640 5634 5636 5640 5644 5643 5641 5642 5639 5637
5692 5684 5678 5670 5666 5662 5659 5656 5647 5645 5646 5644 5642 5636 5634 5638 5646 5646 5645 5643 5639 5634